This is the latest recevied weather packets stored in our database for station/object IU5NOC-10. If no packets are shown the sender has not sent any weather packets the latest 1 day(s).
| Time | Temp. | Humidity | Pressure | Rain* | Wind** | Luminosity | Snow |
|---|---|---|---|---|---|---|---|
| 1778023921 | 15° C | 9% | - | 0.25 mm | 0 m/s | - | - |
| 1778023908 | 15° C | 9% | - | 0.25 mm | 1.34 m/s, 304° | - | - |
| 1778023021 | 15° C | 9% | - | 0.25 mm | 0.89 m/s, 235° | - | - |
| 1778023008 | 15° C | 9% | - | 0.25 mm | 1.34 m/s, 286° | - | - |
| 1778022123 | 15° C | 9% | - | 0.25 mm | 2.68 m/s, 317° | - | - |
| 1778022109 | 15° C | 9% | - | 0.25 mm | 1.34 m/s, 238° | - | - |
| 1778021221 | 15° C | 9% | - | 0.25 mm | 0.89 m/s, 1° | - | - |
| 1778021209 | 15° C | 9% | - | 0.25 mm | 1.34 m/s, 230° | - | - |
| 1778020308 | 15° C | 9% | - | 0 mm | 1.34 m/s, 262° | - | - |
| 1778019408 | 15° C | 9% | - | 0 mm | 2.24 m/s, 212° | - | - |
| 1778018509 | 15° C | 9% | - | 0 mm | 0.89 m/s, 273° | - | - |
| 1778017609 | 15° C | 9% | - | 0 mm | 1.34 m/s, 212° | - | - |
| 1778016708 | 15° C | 9% | - | 0 mm | 1.79 m/s, 241° | - | - |
| 1778015808 | 14.44° C | 9% | - | 0 mm | 1.34 m/s, 265° | - | - |
| 1778014921 | 14.44° C | 9% | - | 0 mm | 0.89 m/s, 320° | - | - |
| 1778014909 | 14.44° C | 9% | - | 0 mm | 1.34 m/s, 224° | - | - |
| 1778014021 | 13.89° C | 9% | - | 0 mm | 1.79 m/s, 261° | - | - |
| 1778014009 | 13.89° C | 9% | - | 0 mm | 1.34 m/s, 219° | - | - |
| 1778013121 | 13.33° C | 9% | - | 0 mm | 0 m/s | - | - |
| 1778013108 | 13.33° C | 9% | - | 0 mm | 0 m/s | - | - |
| 1778012221 | 13.33° C | 9% | - | 0 mm | 0 m/s | - | - |
| 1778012208 | 13.33° C | 9% | - | 0 mm | 0 m/s | - | - |
| 1778011321 | 13.89° C | 9% | - | 0 mm | 0 m/s | - | - |
| 1778011308 | 13.89° C | 9% | - | 0 mm | 0 m/s | - | - |
| 1778010422 | 13.33° C | 9% | - | 0 mm | 0.45 m/s, 73° | - | - |
* Rain latest hour (hover to see other rain measurements)
** Current wind speed in m/s (hover to see current wind gust speed)